When you browse on this site, cookies collect data to enhance your experience and personalize the content and advertising you see.
Visit our Privacy Policy to learn more. By continuing to use the site, you agree to this use of cookies and data.
  • In Czech Republic
  • List of Countries
  • For 7 days
  • Water Temperature
  • Satellite Maps
  • Weather Map
  • Weather Widgets
  • user-avatar
    Login

    Hourly Weather Nanacamilpa

    Today, 19 December, Wednesday

    Time Temperature Precipitation Wind Pressure Humidity
    00:00 +9°C° 0 mm 2 mps 547 mmHg 79%
    01:00 +8°C° 0 mm 2 mps 546 mmHg 79%
    02:00 +8°C° 0 mm 2 mps 546 mmHg 80%
    03:00 +9°C° 0 mm 1 mps 546 mmHg 79%
    04:00 +9°C° 0 mm 1 mps 546 mmHg 78%
    05:00 +9°C° 0 mm 1 mps 546 mmHg 77%
    06:00 +9°C° 0 mm 2 mps 547 mmHg 71%
    07:00 +10°C° 0 mm 2 mps 548 mmHg 65%
    08:00 +12°C° 0 mm 2 mps 548 mmHg 59%
    09:00 +12°C° 0 mm 3 mps 549 mmHg 52%
    10:00 +14°C° 0 mm 3 mps 549 mmHg 45%
    11:00 +17°C° 0 mm 4 mps 550 mmHg 38%
    12:00 +17°C° 0 mm 4 mps 549 mmHg 36%
    13:00 +16°C° 0 mm 5 mps 549 mmHg 34%
    14:00 +17°C° 0 mm 5 mps 549 mmHg 32%
    15:00 +15°C° 0 mm 4 mps 548 mmHg 38%
    16:00 +14°C° 0 mm 4 mps 547 mmHg 43%
    17:00 +12°C° 0 mm 3 mps 547 mmHg 49%
    18:00 +11°C° 0 mm 3 mps 547 mmHg 52%
    19:00 +10°C° 0 mm 2 mps 547 mmHg 56%
    20:00 +9°C° 0 mm 2 mps 547 mmHg 59%
    21:00 +9°C° 0 mm 2 mps 547 mmHg 59%
    22:00 +9°C° 0 mm 1 mps 547 mmHg 59%
    23:00 +9°C° 0 mm 1 mps 547 mmHg 58%

    Tomorrow, 20 December, Thursday

    Time Temperature Precipitation Wind Pressure Humidity
    00:00 +8°C° 0 mm 1 mps 546 mmHg 59%
    01:00 +8°C° 0 mm 1 mps 546 mmHg 59%
    02:00 +7°C° 0 mm 1 mps 546 mmHg 60%
    03:00 +7°C° 0 mm 1 mps 546 mmHg 60%
    04:00 +6°C° 0 mm 1 mps 546 mmHg 59%
    05:00 +6°C° 0 mm 1 mps 546 mmHg 59%
    06:00 +7°C° 0 mm 1 mps 547 mmHg 55%
    07:00 +8°C° 0 mm 1 mps 548 mmHg 51%
    08:00 +9°C° 0 mm 1 mps 549 mmHg 46%
    09:00 +10°C° 0 mm 2 mps 550 mmHg 40%
    10:00 +12°C° 0 mm 2 mps 550 mmHg 34%
    11:00 +13°C° 0 mm 3 mps 551 mmHg 28%
    12:00 +13°C° 0 mm 3 mps 551 mmHg 28%
    13:00 +15°C° 0 mm 2 mps 551 mmHg 28%
    14:00 +15°C° 0 mm 2 mps 550 mmHg 29%
    15:00 +14°C° 0 mm 2 mps 550 mmHg 35%
    16:00 +12°C° 0 mm 2 mps 549 mmHg 41%
    17:00 +10°C° 0 mm 2 mps 549 mmHg 47%
    18:00 +9°C° 0 mm 2 mps 549 mmHg 53%
    19:00 +8°C° 0 mm 2 mps 549 mmHg 59%
    20:00 +8°C° 0 mm 1 mps 549 mmHg 65%
    21:00 +8°C° 0 mm 1 mps 549 mmHg 68%
    22:00 +6°C° 0 mm 2 mps 549 mmHg 71%
    23:00 +6°C° 0 mm 2 mps 548 mmHg 74%

    Day after tomorrow, 21 December, Friday

    Time Temperature Precipitation Wind Pressure Humidity
    00:00 +5°C° 0 mm 2 mps 548 mmHg 76%
    01:00 +5°C° 0 mm 2 mps 548 mmHg 77%
    02:00 +4°C° 0 mm 2 mps 547 mmHg 79%
    03:00 +4°C° 0 mm 2 mps 547 mmHg 79%
    04:00 +4°C° 0 mm 1 mps 547 mmHg 80%
    05:00 +4°C° 0 mm 1 mps 547 mmHg 81%
    06:00 +5°C° 0 mm 1 mps 548 mmHg 74%
    07:00 +6°C° 0 mm 1 mps 549 mmHg 66%
    08:00 +7°C° 0 mm 1 mps 550 mmHg 59%
    09:00 +9°C° 0 mm 1 mps 551 mmHg 49%
    10:00 +12°C° 0 mm 1 mps 551 mmHg 38%
    11:00 +14°C° 0 mm 1 mps 552 mmHg 28%
    12:00 +15°C° 0 mm 1 mps 552 mmHg 26%
    13:00 +15°C° 0 mm 1 mps 552 mmHg 24%
    14:00 +16°C° 0 mm 1 mps 551 mmHg 23%
    15:00 +14°C° 0 mm 1 mps 551 mmHg 29%
    16:00 +13°C° 0 mm 1 mps 550 mmHg 35%
    17:00 +11°C° 0 mm 1 mps 549 mmHg 41%
    18:00 +11°C° 0 mm 1 mps 549 mmHg 46%
    19:00 +10°C° 0 mm 1 mps 549 mmHg 51%
    20:00 +9°C° 0 mm 1 mps 549 mmHg 55%
    21:00 +8°C° 0 mm 1 mps 549 mmHg 56%
    22:00 +8°C° 0 mm 1 mps 549 mmHg 57%
    23:00 +8°C° 0 mm 1 mps 548 mmHg 57%

    22 December, Saturday

    Time Temperature Precipitation Wind Pressure Humidity
    00:00 +7°C° 0 mm 1 mps 548 mmHg 57%
    01:00 +7°C° 0 mm 1 mps 548 mmHg 57%
    02:00 +7°C° 0 mm 1 mps 547 mmHg 57%
    03:00 +6°C° 0 mm 1 mps 547 mmHg 56%
    04:00 +6°C° 0 mm 1 mps 547 mmHg 55%
    05:00 +6°C° 0 mm 1 mps 547 mmHg 54%
    06:00 +7°C° 0 mm 1 mps 548 mmHg 49%
    07:00 +9°C° 0 mm 1 mps 549 mmHg 44%
    08:00 +11°C° 0 mm 1 mps 551 mmHg 38%
    09:00 +12°C° 0 mm 1 mps 551 mmHg 33%
    10:00 +14°C° 0 mm 1 mps 552 mmHg 27%
    11:00 +16°C° 0 mm 1 mps 553 mmHg 21%
    12:00 +16°C° 0 mm 1 mps 552 mmHg 21%
    13:00 +18°C° 0 mm 1 mps 552 mmHg 21%
    14:00 +17°C° 0 mm 2 mps 551 mmHg 21%
    15:00 +16°C° 0 mm 1 mps 551 mmHg 27%
    16:00 +14°C° 0 mm 1 mps 550 mmHg 34%
    17:00 +13°C° 0 mm 1 mps 550 mmHg 41%
    18:00 +12°C° 0 mm 1 mps 550 mmHg 46%
    19:00 +11°C° 0 mm 1 mps 550 mmHg 52%
    20:00 +10°C° 0 mm 1 mps 550 mmHg 57%
    21:00 +9°C° 0 mm 1 mps 549 mmHg 58%
    22:00 +9°C° 0 mm 1 mps 549 mmHg 59%
    23:00 +9°C° 0 mm 1 mps 549 mmHg 60%

    23 December, Sunday

    Time Temperature Precipitation Wind Pressure Humidity
    00:00 +8°C° 0 mm 1 mps 549 mmHg 60%
    01:00 +8°C° 0 mm 1 mps 548 mmHg 60%
    02:00 +7°C° 0 mm 1 mps 548 mmHg 60%
    03:00 +7°C° 0 mm 1 mps 548 mmHg 59%
    04:00 +7°C° 0 mm 1 mps 548 mmHg 59%
    05:00 +7°C° 0 mm 1 mps 548 mmHg 58%
    06:00 +8°C° 0 mm 1 mps 549 mmHg 53%
    07:00 +10°C° 0 mm 1 mps 550 mmHg 49%
    08:00 +10°C° 0 mm 0 mps 551 mmHg 44%
    09:00 +13°C° 0 mm 1 mps 552 mmHg 38%
    10:00 +15°C° 0 mm 1 mps 552 mmHg 32%
    11:00 +16°C° 0 mm 1 mps 553 mmHg 27%
    12:00 +18°C° 0 mm 1 mps 552 mmHg 26%
    13:00 +18°C° 0 mm 1 mps 552 mmHg 25%
    14:00 +19°C° 0 mm 1 mps 552 mmHg 24%
    15:00 +16°C° 0 mm 1 mps 551 mmHg 31%
    16:00 +15°C° 0 mm 1 mps 550 mmHg 38%
    17:00 +13°C° 0 mm 1 mps 550 mmHg 44%
    18:00 +12°C° 0 mm 1 mps 550 mmHg 50%
    19:00 +11°C° 0 mm 1 mps 550 mmHg 56%
    20:00 +10°C° 0 mm 1 mps 550 mmHg 62%
    21:00 +10°C° 0 mm 1 mps 550 mmHg 64%
    22:00 +9°C° 0 mm 1 mps 549 mmHg 66%
    23:00 +9°C° 0 mm 1 mps 549 mmHg 69%

    24 December, Monday

    Time Temperature Precipitation Wind Pressure Humidity
    00:00 +8°C° 0 mm 1 mps 549 mmHg 71%
    01:00 +8°C° 0 mm 1 mps 548 mmHg 74%
    02:00 +7°C° 0 mm 1 mps 548 mmHg 77%
    03:00 +7°C° 0 mm 1 mps 548 mmHg 79%
    04:00 +7°C° 0 mm 1 mps 548 mmHg 80%
    05:00 +6°C° 0 mm 1 mps 548 mmHg 82%
    06:00 +7°C° 0 mm 1 mps 549 mmHg 75%
    07:00 +9°C° 0 mm 1 mps 549 mmHg 68%
    08:00 +10°C° 0 mm 1 mps 550 mmHg 61%
    09:00 +12°C° 0 mm 1 mps 551 mmHg 53%
    10:00 +13°C° 0 mm 1 mps 552 mmHg 44%
    11:00 +15°C° 0 mm 1 mps 552 mmHg 36%
    12:00 +16°C° 0 mm 1 mps 552 mmHg 34%
    13:00 +16°C° 0 mm 1 mps 551 mmHg 32%
    14:00 +18°C° 0 mm 1 mps 551 mmHg 30%
    15:00 +15°C° 0 mm 1 mps 551 mmHg 35%
    16:00 +14°C° 0 mm 2 mps 550 mmHg 39%
    17:00 +13°C° 0 mm 2 mps 549 mmHg 44%
    18:00 +12°C° 0 mm 1 mps 549 mmHg 47%
    19:00 +11°C° 0 mm 1 mps 549 mmHg 49%
    20:00 +10°C° 0 mm 1 mps 549 mmHg 52%
    21:00 +9°C° 0 mm 1 mps 549 mmHg 53%
    22:00 +9°C° 0 mm 1 mps 548 mmHg 55%
    23:00 +9°C° 0 mm 1 mps 548 mmHg 56%
    Show more